Tracking 29892 objects as of 21-Nov-2024
HD Live streaming from Space Station
objects crossing your sky now

STARLINK-2308

Track STARLINK-2308 now!
10-day predictions
STARLINK-2308 is classified as:


NORAD ID: 47985
Int'l Code: 2021-024J
Perigee: 519.7 km
Apogee: 521.3 km
Inclination: 53.1 °
Period: 94.9 minutes
Semi major axis: 6891 km
RCS: Unknown
Launch date: March 24, 2021
Source: United States (US)
Launch site: AIR FORCE EASTERN TEST RANGE (AFETR)
Your satellite tracking list
Your tracking list is empty




NASA's NSSDC Master Catalog

Two Line Element Set (TLE):
1 47985U 21024J   24325.91668981  .00381163  00000-0  17826-1 0  9993
2 47985  53.0542 238.1027 0001132  93.2968 264.4765 15.17509854  5690
Source of the keplerian elements: AFSPC